Back to catalog

OPS 4682 DEB

AlivePO
NORAD 18967·DEBRIS·🇺🇸 United States

Launched Apr 3, 1965 from Vandenberg Space Force Base

Loading…

Next Passes (next 24 hours)

TLE

FreshSource: Space-Track

Epoch: Sep 14, 2026, 13:57 UTC

1 18967U 65027AP  26257.58179027  .00000342  00000-0  11747-2 0  9993
2 18967  90.2534  12.4031 0026537 268.5202 220.9605 12.96060293829893

Track OPS 4682 DEB in real time with AllMySat

Download on the App Store